Location: Newark
(35.2672°N, 80.7344°W)
Time: 00:56:31
(UTC+00:00)

SR - Pass Details

Date: 02 February 2020
Orbit: 575 x 881 km, 66.7° (Epoch: 20 February)

Event Time Altitude Azimuth Distance (km) Brightness Sun altitude
Exits shadow 09:38:40 15° 19° (NNE) 1,989 ? -33.5°
Maximum altitude 09:40:54 19° 49° (NE) 1,738 ? -33.1°
Drops below altitude 10° 09:44:29 10° 94° (E) 2,209 ? -32.3°
Sets 09:47:23 0° 113° (ESE) 3,063 ? -31.8°
